Location: Warner Observatory
(35.1353°N, 89.5455°W)
Time: 20:01:49
(UTC-06:00)

Envisat - Pass Details

Date: 27 January 2020
Orbit: 764 x 766 km, 98.1° (Epoch: 25 February)

Event Time Altitude Azimuth Distance (km) Brightness Sun altitude
Rises 05:41:02 0° 28° (NNE) 3,235 6.5 -16.5°
Reaches altitude 10° 05:43:47 10° 42° (NE) 2,304 5.9 -15.9°
Maximum altitude 05:47:50 24° 95° (E) 1,554 5.6 -15.1°
Drops below altitude 10° 05:51:51 10° 148° (SSE) 2,292 6.1 -14.3°
Sets 05:54:34 0° 162° (SSE) 3,213 6.7 -13.8°
